Ocean City, MD

10:12 AM EDT on March 25, 2017 (GMT -0400)
Ocean City Municipal

Weather History for KOXB - November, 2013

Change the Weather History Date:

Saturday, November 2, 2013

  Actual Average (KSBY) Record (KSBY)
Temperature  
Mean Temperature 62 °F -  
Max Temperature 69 °F 68 °F 81 °F (1974)
Min Temperature 55 °F 47 °F 25 °F (1908)
Degree Days  
Heating Degree Days 4    
Growing Degree Days 12 (Base 50)    
Moisture  
Dew Point 58 °F    
Average Humidity 84    
Maximum Humidity 100    
Minimum Humidity 64    
Precipitation  
Precipitation 0.12 in - - ()
Sea Level Pressure  
Sea Level Pressure 29.68 in    
Wind  
Wind Speed 6 mph (NW)    
Max Wind Speed 12 mph    
Max Gust Speed 23 mph    
Visibility 8 miles    
Events Rain    
Averages and records for this station are not official NWS values.
T = Trace of Precipitation, MM = Missing Value Source: NWS Daily Summary

Daily Weather History Graph

Daily Weather History Graph

Search for Another Location

Airport or City:

Trip Planner

Search our weather history database for the weather conditions in past years. The results will help you decide how hot, cold, wet, or windy it might be!

Date:

Astronomy

Nov. 02, 2013 Rise Set
Actual Time 7:27 AM EDT 5:59 PM EDT
Civil Twilight 7:00 AM EDT 6:27 PM EDT
Nautical Twilight 6:29 AM EDT 6:58 PM EDT
Astronomical Twilight 5:58 AM EDT 7:29 PM EDT
Moon 6:23 AM EDT (11/2) 5:29 PM EDT (11/2)
Length of Visible Light 11h 26m
Length of Day
10h 31m
Waning Crescent, 1% of the Moon is Illuminated
Nov 2
Waning Crescent
Nov 3
New
Nov 10
First Quarter
Nov 17
Full
Nov 25
Last Quarter

Hourly Weather History & Observations

Time (EDT) Temp. Dew Point Humidity Pressure Visibility Wind Dir Wind Speed Gust Speed Precip Events Conditions
12:06 AM 66.2 °F 64.4 °F 94% 29.66 in 10.0 mi SW 5.8 mph - N/A   Overcast
12:53 AM 64.9 °F 61.0 °F 87% 29.65 in 8.0 mi SW 8.1 mph - 0.07 in Rain Light Rain
1:15 AM 66.2 °F 60.8 °F 83% 29.65 in 9.0 mi SW 8.1 mph 18.4 mph 0.00 in   Overcast
1:33 AM 66.2 °F 60.8 °F 83% 29.64 in 5.0 mi WSW 8.1 mph - 0.02 in Rain Light Rain
1:42 AM 66.2 °F 59.0 °F 78% 29.63 in 2.5 mi SW 5.8 mph - 0.04 in Rain Light Rain
1:45 AM 66.2 °F 59.0 °F 78% 29.64 in 3.0 mi SW 5.8 mph - 0.04 in Rain Light Rain
1:53 AM 66.0 °F 61.0 °F 84% 29.64 in 7.0 mi West 5.8 mph - 0.04 in Rain Light Rain
2:08 AM 66.2 °F 62.6 °F 88% 29.64 in 6.0 mi West 4.6 mph - 0.01 in Rain Light Rain
2:53 AM 66.0 °F 61.0 °F 84% 29.64 in 10.0 mi West 8.1 mph - 0.01 in   Partly Cloudy
3:07 AM 66.2 °F 62.6 °F 88% 29.64 in 9.0 mi WSW 5.8 mph - N/A   Scattered Clouds
3:53 AM 66.0 °F 60.1 °F 81% 29.62 in 8.0 mi WNW 5.8 mph - N/A   Mostly Cloudy
4:22 AM 64.4 °F 62.6 °F 94% 29.61 in 7.0 mi West 3.5 mph - N/A   Mostly Cloudy
4:53 AM 64.9 °F 64.0 °F 97% 29.63 in 7.0 mi West 3.5 mph - N/A   Overcast
5:03 AM 64.4 °F 62.6 °F 94% 29.64 in 7.0 mi Calm Calm - N/A   Overcast
5:16 AM 64.4 °F 64.4 °F 100% 29.65 in 7.0 mi WSW 3.5 mph - N/A   Mostly Cloudy
5:53 AM 64.9 °F 63.0 °F 93% 29.65 in 9.0 mi NW 3.5 mph - N/A   Mostly Cloudy
6:09 AM 64.4 °F 60.8 °F 88% 29.64 in 6.0 mi NNW 4.6 mph - N/A   Scattered Clouds
6:53 AM 63.0 °F 59.0 °F 87% 29.65 in 6.0 mi NNW 4.6 mph - N/A   Partly Cloudy
7:33 AM 62.6 °F 60.8 °F 94% 29.65 in 5.0 mi Calm Calm - N/A   Mostly Cloudy
7:45 AM 62.6 °F 60.8 °F 94% 29.65 in 5.0 mi North 5.8 mph - N/A   Overcast
7:53 AM 63.0 °F 61.0 °F 93% 29.66 in 5.0 mi NNE 8.1 mph - N/A   Overcast
8:01 AM 62.6 °F 60.8 °F 94% 29.66 in 5.0 mi NNE 9.2 mph - N/A   Overcast
8:46 AM 62.6 °F 60.8 °F 94% 29.67 in 5.0 mi NNE 6.9 mph - N/A   Overcast
8:53 AM 62.1 °F 59.0 °F 90% 29.68 in 5.0 mi North 5.8 mph - N/A   Overcast
9:40 AM 62.6 °F 59.0 °F 88% 29.68 in 6.0 mi North 5.8 mph - N/A   Overcast
9:53 AM 62.1 °F 59.0 °F 90% 29.68 in 7.0 mi North 4.6 mph - N/A   Mostly Cloudy
9:55 AM 62.6 °F 59.0 °F 88% 29.68 in 7.0 mi North 5.8 mph - N/A   Scattered Clouds
10:53 AM 64.0 °F 57.0 °F 78% 29.68 in 10.0 mi NE 4.6 mph - N/A   Clear
11:53 AM 64.9 °F 57.0 °F 75% 29.68 in 10.0 mi Calm Calm - N/A   Clear
12:53 PM 68.0 °F 55.9 °F 65% 29.67 in 10.0 mi North 5.8 mph - N/A   Clear
1:53 PM 66.9 °F 55.9 °F 68% 29.67 in 10.0 mi East 3.5 mph - N/A   Clear
2:53 PM 64.9 °F 57.9 °F 78% 29.66 in 10.0 mi North - - N/A   Partly Cloudy
3:53 PM 66.9 °F 57.0 °F 70% 29.65 in 10.0 mi North - - N/A   Scattered Clouds
4:53 PM 63.0 °F 57.9 °F 84% 29.68 in 10.0 mi South 4.6 mph - N/A   Clear
5:53 PM 61.0 °F 57.0 °F 87% 29.69 in 8.0 mi Calm Calm - N/A   Clear
6:53 PM 57.9 °F 55.9 °F 93% 29.72 in 7.0 mi Calm Calm - N/A   Scattered Clouds
7:53 PM 61.0 °F 48.9 °F 64% 29.78 in 10.0 mi NW 11.5 mph 18.4 mph N/A   Overcast
8:53 PM 57.9 °F 46.0 °F 65% 29.81 in 10.0 mi NNW 9.2 mph 23.0 mph N/A   Overcast
9:53 PM 57.0 °F 46.0 °F 67% 29.82 in 10.0 mi NNW 9.2 mph - N/A   Overcast
10:53 PM 55.0 °F 45.0 °F 69% 29.83 in 10.0 mi NW 5.8 mph - N/A   Overcast
11:53 PM 55.0 °F 43.0 °F 64% 29.85 in 10.0 mi NW 4.6 mph - N/A   Overcast